{"data":{"norad_id":58970,"intl_designator":"2024-031F","name":"STARLINK-31368","alt_names":[],"object_type":"PAYLOAD","status":"ACTIVE","operator":null,"country":"US","launch_date":"2024-02-15","launch_site_code":"AFWTR","launch_vehicle":null,"mission":null,"orbit_class":"UNKNOWN","rcs_meters":null,"size_class":null,"mass_kg":null,"dimensions":null,"purposes":["comms"],"wikipedia_slug":null,"has_3d_model":false,"image_url":null,"decayed_at":null,"tle_current":{"epoch":"2026-05-25T03:38:34.368288Z","epoch_age_seconds":57806,"freshness":"FRESH","line1":"1 58970U 24031F   26145.15178667  .00006028  00000+0  21540-3 0  9998","line2":"2 58970  53.1616 301.2803 0001065  74.3361 285.7757 15.30208991128242","mean_motion":15.30208991,"eccentricity":0.0001065,"inclination_deg":53.1616,"raan_deg":301.2803,"arg_perigee_deg":74.3361,"mean_anomaly_deg":285.7757,"bstar":0.0002154,"rev_number":12824,"period_min":94.104792774675,"perigee_km":474.45834490905,"apogee_km":475.91810318177,"semimajor_km":6853.3252240454,"source":"CELESTRAK","updated_at":"2026-05-25T13:38:18.794019Z"}}}